sat.trackr.live / text

‹ back to catalog

STARLINK-35925

NORAD 66887 · 2025-283K

PAYLOAD ACTIVE UNKNOWN

§ Identity

Operator
Country
US
Launch date
2025-12-04
Launch site
AFWTR
Launch vehicle
Mass (kg)
RCS (m²)

Purposes: comms

External: N2YO · Heavens-Above · Gunter

§ Orbital elements

Epoch: 2026-05-25T04:00:03.998880Z

Period
93.85 min
Inclination
53.1592°
Eccentricity
0.0001332
Mean motion
15.34336664 rev/d
Perigee alt
462.0 km
Apogee alt
463.8 km
Semi-major
6,841.0 km
B*
1.8460e-3
RAAN
28.9708°
Arg perigee
89.0005°
Mean anomaly
237.6745°
Rev number
585

§ Raw data

STARLINK-359251 66887U 25283K   26145.16671295  .00062386  00000+0  18460-2 0  99952 66887  53.1592  28.9708 0001332  89.0005 237.6745 15.34336664  5850

JSON: /api/v1/satellites/66887 · /tle

For live sub-satellite position, see the globe view (requires WebGL).

§ Visibility from observer

Set your observer location to see the next 7 days of passes ≥ 10°. The values pass through the URL so the page stays shareable.

No JS? Fill the form by hand. The geolocation button needs JavaScript.